[[{"header":{"parameterUnit":"m.s-1","parameterCategory":1,"la1":30.2991,"la2":30.254,"lo1":-89.0895,"lo2":-89.0444,"dy":0.0017,"dx":0.0017,"nx":28,"ny":28,"refTime":"2024-07-09T03:00:00:Z","depth":0,"parameterNumber":2,"parameterNumberName":"U-component_of_WINDS"},"data":[0,0,0,0,0,0,0,0,0,0,0,0,0,0,0,0,0,0,0,0,0,0,0,0,0,0,0,0,0,0,0,0,0,0,0,0,0,0,0,0,0,0,0,0,0,0,0,0,0,0,0,0,0,0,0,0,0,0,4.7652,4.7654,0,4.7796,4.7798,4.7799,4.7747,4.7744,4.774,4.7737,4.789,4.7897,4.7904,0,0,0,0,0,0,0,0,0,0,0,0,0,4.7333,4.7339,4.7652,4.7654,4.7656,4.7796,4.7798,4.78,4.7748,4.7744,4.774,4.7736,4.7887,4.7896,4.7904,0,0,0,0,0,0,0,0,0,0,0,0,0,4.7474,4.7341,4.7652,4.7646,4.7647,4.7795,4.7798,4.78,4.7748,4.7743,4.7739,4.7734,4.7885,4.7895,4.7905,4.8069,0,0,4.7938,4.7943,0,0,0,0,0,0,0,0,4.7466,4.7486,4.7645,4.7647,4.7648,4.7748,4.7741,4.7891,4.775,4.771,4.7737,4.7732,4.7847,4.786,4.7898,4.8076,4.8083,4.7939,4.7945,4.795,4.7953,0,0,0,0,0,0,0,4.7456,4.7479,4.7709,4.7648,4.765,4.7637,4.7652,4.7769,4.7804,4.7713,4.771,4.7727,4.7847,4.7888,4.7901,4.8085,4.7939,4.7948,4.7955,4.7959,4.8399,4.8404,0,0,0,0,0,0,4.7446,4.7471,4.7705,4.7713,4.7543,4.7647,4.7663,4.7721,4.7803,4.7811,4.7731,4.7724,4.7872,4.7889,4.7907,4.81,4.795,4.796,4.7966,4.8394,4.84,4.8406,0,0,0,0,0,0,4.7439,4.7467,4.7699,4.7592,4.762,4.7657,4.7723,4.7727,4.7768,4.7816,4.7823,4.7767,4.7869,4.7892,4.8027,4.8105,4.7965,4.7974,4.8387,4.8396,4.8403,4.849,0,0,0,0,0,0,4.743,4.7465,4.7527,4.7593,4.7626,4.7817,4.7728,4.7733,4.7786,4.7778,4.7852,4.7859,4.7867,4.8012,4.8038,4.8117,4.7983,4.8381,4.8391,4.84,4.8481,4.85,4.8517,0,0,0,0,0,4.7419,4.7549,4.7531,4.7559,4.7705,4.7822,4.7841,4.7846,4.7792,4.7855,4.7885,4.7857,4.8092,4.8026,4.8055,4.8139,4.8376,4.8388,4.84,4.8473,4.8497,4.8517,0,0,0,0,0,0,4.7494,4.7557,4.7538,4.7693,4.7752,4.7813,4.7893,4.7872,4.7949,4.7938,4.7943,4.796,4.8098,4.8132,4.8058,4.8298,4.8226,4.8244,4.8271,4.8295,4.8312,4.8301,4.7991,0,0,0,0,0,4.7528,4.7617,4.7668,4.7799,4.7829,4.7856,4.7907,4.7905,4.7967,4.7993,4.8033,4.8096,4.8183,4.8241,4.8324,4.8485,4.8499,4.8556,4.8574,4.8589,4.8605,4.8688,4.8714,4.8445,4.8445,4.8445,0,0,4.7601,4.7646,4.7703,4.7815,4.7861,4.7952,4.7878,4.7979,4.8046,4.8009,4.8138,4.817,4.8239,4.8387,4.8454,4.8419,4.8682,4.8604,4.8616,4.8624,4.8703,4.8729,4.8751,4.8453,4.8452,4.845,0,0,4.7779,4.7823,4.7935,4.7981,4.8049,4.8065,4.8092,4.8155,4.8173,4.8303,4.8275,4.8356,4.8507,4.8556,4.8601,4.8792,4.8768,4.882,4.8915,4.8996,4.9017,4.9036,4.9101,4.9125,4.8835,4.8835,4.8836,0,4.7861,4.7997,4.7996,4.8098,4.8147,4.8114,4.8227,4.8272,4.8365,4.84,4.8359,4.8544,4.859,4.8746,4.8792,4.8831,4.886,4.8811,4.9014,4.9033,4.905,4.9113,4.9138,4.8841,4.884,4.884,4.8839,0,4.8092,4.8187,4.8269,4.8356,4.8415,4.8522,4.8537,4.8597,4.8589,4.8609,4.8739,4.879,4.8882,4.8919,4.8914,4.9074,4.905,4.9012,4.8939,4.9081,4.914,4.9164,4.8849,4.8847,4.8845,4.8844,0,0,4.8325,4.8406,4.8436,4.8473,4.8544,4.8617,4.8721,4.8808,4.8857,4.8922,4.9008,4.9135,4.9098,4.9149,4.9149,4.922,4.9364,4.9173,4.9174,4.9204,4.954,4.9568,4.9595,4.9348,4.9352,4.9356,4.9533,0,4.8507,4.8688,4.8689,4.8856,4.8941,4.8908,4.8998,4.9051,4.9072,4.9147,4.917,4.9258,4.9205,4.9235,4.9304,4.9332,4.9431,4.9319,4.9428,4.9432,4.941,4.9627,4.9657,4.9822,4.9557,4.9561,4.9564,0,4.8745,4.8812,4.8987,4.904,4.9076,4.9157,4.9234,4.9307,4.9365,4.9374,4.9428,4.9416,4.9521,4.9444,4.9588,4.9512,4.9556,4.9576,4.9582,4.9592,4.9506,4.9641,4.9876,4.99,4.96,4.9597,4.9595,0,4.8894,4.9029,4.9149,4.9182,4.9249,4.9305,4.9336,4.9389,4.9439,4.9507,4.9539,4.9619,4.9663,4.9725,4.9733,4.9677,4.9877,4.9802,4.9887,4.9887,4.9931,4.9928,5.0174,4.9962,4.9961,4.9961,4.996,0,4.9096,4.9204,4.9216,4.9291,4.9409,4.9408,4.9526,4.9551,4.9598,4.9676,4.9653,4.9727,4.9734,4.9811,4.9818,4.9934,4.9955,4.9965,4.9966,4.9967,4.9965,4.9995,4.9984,4.9967,4.9966,4.9965,4.9963,0,4.9284,4.9296,4.9425,4.9475,4.949,4.9575,4.9618,4.9688,4.9704,4.9803,4.9826,4.9852,4.994,4.9954,5.0059,5.0064,5.0202,5.0192,5.0182,5.018,5.0263,5.0254,5.0537,5.0573,5.0338,5.034,5.0342,0,4.9412,4.9493,4.955,4.9599,4.9631,4.9712,4.9761,4.9762,4.9815,4.9884,4.9946,5.003,5.0098,5.024,5.0269,5.0347,5.0338,5.0431,5.035,5.0347,5.0337,5.0331,5.0338,5.0447,5.045,5.0452,5.0453,0,4.9637,4.9638,4.9709,4.9782,4.9841,4.9899,4.9954,4.9996,5.0004,5.0064,5.0152,5.0204,5.0307,5.0391,5.0468,5.05,5.0478,5.0478,5.0502,5.0503,5.0493,5.0497,5.0223,5.0472,5.047,5.0469,5.0468,5.0467,4.9798,4.9866,4.9915,4.9995,5.0035,5.0085,5.0152,5.0174,5.0247,5.0329,5.0326,5.0421,5.0473,5.0574,5.061,5.0685,5.0655,5.069,5.0698,5.0707,5.0713,5.0481,5.0699,5.0699,5.0698,5.0698,5.0698,0,5.002,5.0048,5.0121,5.0195,5.0257,5.0228,5.0285,5.0339,5.0423,5.0472,5.0538,5.0637,5.0716,5.0749,5.0827,5.0881,5.0872,5.0901,5.0897,5.0904,5.0737,5.0708,5.0906,5.0906,5.0906,5.0906,5.0906,5.0906,5.0142,5.0256,5.0261,5.0393,5.0422,5.0513,5.0548,5.0594,5.0632,5.0743,5.0807,5.0827,5.0869,5.0949,5.102,5.1028,5.1057,5.109,5.1093,5.0937,5.0916,5.0896,5.0868,5.1097,5.1097,5.1253,5.1255,5.1256]},{"header":{"parameterUnit":"m.s-1","parameterCategory":1,"la1":30.2991,"la2":30.254,"lo1":-89.0895,"lo2":-89.0444,"dy":0.0017,"dx":0.0017,"nx":28,"ny":28,"refTime":"2024-07-09T03:00:00:Z","depth":0,"parameterNumber":3,"parameterNumberName":"V-component_of_WINDS"},"data":[0,0,0,0,0,0,0,0,0,0,0,0,0,0,0,0,0,0,0,0,0,0,0,0,0,0,0,0,0,0,0,0,0,0,0,0,0,0,0,0,0,0,0,0,0,0,0,0,0,0,0,0,0,0,0,0,0,0,-0.7334,-0.7336,0,-0.7493,-0.7495,-0.7497,-0.7495,-0.7493,-0.749,-0.7488,-0.7658,-0.7664,-0.7671,0,0,0,0,0,0,0,0,0,0,0,0,0,-0.7033,-0.7038,-0.7334,-0.7336,-0.7338,-0.7493,-0.7495,-0.7497,-0.7495,-0.7492,-0.749,-0.7487,-0.7656,-0.7663,-0.7671,0,0,0,0,0,0,0,0,0,0,0,0,0,-0.7175,-0.704,-0.7333,-0.7355,-0.7359,-0.7492,-0.7495,-0.7498,-0.7496,-0.7492,-0.7489,-0.7486,-0.7653,-0.7663,-0.7672,-0.7797,0,0,-0.7702,-0.7706,0,0,0,0,0,0,0,0,-0.7167,-0.7186,-0.735,-0.7354,-0.7358,-0.7471,-0.7451,-0.7598,-0.7496,-0.7444,-0.7488,-0.7485,-0.7599,-0.7613,-0.765,-0.7805,-0.7812,-0.7703,-0.7709,-0.7713,-0.7716,0,0,0,0,0,0,0,-0.7157,-0.7179,-0.7397,-0.7352,-0.7357,-0.7359,-0.7375,-0.7479,-0.7538,-0.7448,-0.7448,-0.7467,-0.76,-0.764,-0.7654,-0.7814,-0.7703,-0.7711,-0.7717,-0.7721,-0.8078,-0.8081,0,0,0,0,0,0,-0.7142,-0.7171,-0.7392,-0.7402,-0.7252,-0.7367,-0.7385,-0.7438,-0.7536,-0.7548,-0.7469,-0.7466,-0.7625,-0.7642,-0.766,-0.7811,-0.7713,-0.7722,-0.7728,-0.8074,-0.8078,-0.8082,0,0,0,0,0,0,-0.7135,-0.7162,-0.7386,-0.7286,-0.7315,-0.7375,-0.7434,-0.7443,-0.7483,-0.7552,-0.7563,-0.7499,-0.7623,-0.7646,-0.7762,-0.7816,-0.7727,-0.7735,-0.807,-0.8075,-0.808,-0.8114,0,0,0,0,0,0,-0.7127,-0.7159,-0.7206,-0.7287,-0.732,-0.7484,-0.7438,-0.7448,-0.7499,-0.7496,-0.7583,-0.7595,-0.7623,-0.7747,-0.7771,-0.7828,-0.7743,-0.8065,-0.8072,-0.8079,-0.8108,-0.812,-0.813,0,0,0,0,0,-0.7116,-0.7211,-0.7209,-0.7235,-0.738,-0.7487,-0.7506,-0.7534,-0.7503,-0.7551,-0.7596,-0.7592,-0.7806,-0.7759,-0.7786,-0.7847,-0.8062,-0.807,-0.8078,-0.8103,-0.8118,-0.8129,0,0,0,0,0,0,-0.7138,-0.7222,-0.722,-0.7344,-0.7408,-0.7486,-0.7548,-0.7549,-0.7624,-0.7619,-0.7653,-0.7672,-0.7788,-0.7829,-0.7775,-0.7972,-0.793,-0.7944,-0.794,-0.7954,-0.7965,-0.7953,-0.7751,0,0,0,0,0,-0.7156,-0.7234,-0.7305,-0.7407,-0.7439,-0.7488,-0.7536,-0.7552,-0.762,-0.7648,-0.7701,-0.7769,-0.7851,-0.7905,-0.7985,-0.8114,-0.8133,-0.8169,-0.818,-0.8188,-0.82,-0.827,-0.8287,-0.8109,-0.8109,-0.8109,0,0,-0.7197,-0.7253,-0.73,-0.7413,-0.7464,-0.7545,-0.7511,-0.7599,-0.766,-0.7662,-0.7773,-0.7814,-0.7893,-0.8015,-0.8072,-0.8053,-0.8253,-0.8199,-0.8205,-0.8212,-0.828,-0.8297,-0.8312,-0.8115,-0.8114,-0.8113,0,0,-0.7312,-0.7362,-0.7452,-0.7503,-0.758,-0.7611,-0.7633,-0.7711,-0.7737,-0.7849,-0.7852,-0.7926,-0.8067,-0.8122,-0.8169,-0.8302,-0.8301,-0.8327,-0.8384,-0.8452,-0.8466,-0.8478,-0.8525,-0.8541,-0.8339,-0.8339,-0.8339,0,-0.7353,-0.7474,-0.7499,-0.7586,-0.7635,-0.7638,-0.773,-0.7779,-0.7879,-0.7914,-0.7891,-0.8067,-0.812,-0.8255,-0.8287,-0.8325,-0.8351,-0.8318,-0.8461,-0.8474,-0.8486,-0.8531,-0.8549,-0.8341,-0.8341,-0.8341,-0.8341,0,-0.752,-0.7604,-0.7667,-0.776,-0.7817,-0.7907,-0.7946,-0.8001,-0.8011,-0.8045,-0.8159,-0.8222,-0.8314,-0.8347,-0.836,-0.8484,-0.8469,-0.8453,-0.8413,-0.8505,-0.8548,-0.8566,-0.8345,-0.8344,-0.8343,-0.8343,0,0,-0.7655,-0.7758,-0.7782,-0.7823,-0.7907,-0.7973,-0.8062,-0.8149,-0.8195,-0.8264,-0.834,-0.8458,-0.8443,-0.8496,-0.8515,-0.8574,-0.8674,-0.8551,-0.8553,-0.8571,-0.8814,-0.8825,-0.8844,-0.8674,-0.8677,-0.868,-0.8807,0,-0.7778,-0.7934,-0.7958,-0.8096,-0.8174,-0.8176,-0.8254,-0.8314,-0.8348,-0.842,-0.8458,-0.8541,-0.8515,-0.8547,-0.8606,-0.8649,-0.8723,-0.8641,-0.8746,-0.8749,-0.8726,-0.8867,-0.888,-0.8996,-0.8824,-0.8827,-0.8829,0,-0.7943,-0.8013,-0.8157,-0.8229,-0.8262,-0.8331,-0.8412,-0.848,-0.8549,-0.8569,-0.8627,-0.8637,-0.8731,-0.8685,-0.8815,-0.8758,-0.8802,-0.883,-0.8835,-0.8847,-0.8795,-0.8882,-0.9035,-0.9052,-0.8856,-0.8854,-0.8852,0,-0.8026,-0.8156,-0.8259,-0.8295,-0.8381,-0.8429,-0.8467,-0.8533,-0.8583,-0.8654,-0.8687,-0.877,-0.8815,-0.8879,-0.8912,-0.8876,-0.9039,-0.8996,-0.9059,-0.9058,-0.9094,-0.9091,-0.9256,-0.9123,-0.9122,-0.9122,-0.9122,0,-0.8161,-0.825,-0.8297,-0.836,-0.8459,-0.8486,-0.8584,-0.8622,-0.8679,-0.8751,-0.8759,-0.8826,-0.8865,-0.8939,-0.8965,-0.9068,-0.9089,-0.9109,-0.9115,-0.9108,-0.9105,-0.9138,-0.9131,-0.9127,-0.9126,-0.9125,-0.9124,0,-0.8271,-0.8306,-0.8418,-0.8489,-0.8509,-0.8579,-0.864,-0.8702,-0.8734,-0.8825,-0.8848,-0.89,-0.8986,-0.9025,-0.9133,-0.915,-0.9267,-0.9268,-0.9243,-0.9246,-0.9306,-0.93,-0.9497,-0.9524,-0.9373,-0.9374,-0.9376,0,-0.8355,-0.8422,-0.8499,-0.8546,-0.8585,-0.8661,-0.8712,-0.8741,-0.8793,-0.8875,-0.8928,-0.9013,-0.9084,-0.9222,-0.927,-0.9353,-0.9355,-0.9418,-0.9368,-0.9358,-0.9356,-0.9351,-0.9358,-0.9428,-0.9429,-0.9431,-0.9432,0,-0.85,-0.8513,-0.8584,-0.8661,-0.8719,-0.8782,-0.8844,-0.8882,-0.8921,-0.898,-0.9067,-0.9121,-0.9229,-0.9315,-0.9399,-0.9441,-0.9443,-0.9447,-0.9466,-0.946,-0.9442,-0.9452,-0.9268,-0.9443,-0.9442,-0.9441,-0.944,-0.944,-0.8599,-0.8658,-0.8721,-0.8799,-0.8848,-0.8904,-0.8965,-0.9004,-0.9076,-0.9164,-0.9178,-0.927,-0.9337,-0.945,-0.9494,-0.9568,-0.9553,-0.958,-0.9587,-0.9594,-0.9597,-0.943,-0.9584,-0.9583,-0.9583,-0.9583,-0.9583,0,-0.8744,-0.8783,-0.8855,-0.8939,-0.9,-0.8994,-0.9061,-0.9114,-0.9194,-0.9255,-0.9322,-0.9422,-0.9504,-0.9558,-0.9641,-0.969,-0.9693,-0.9711,-0.9708,-0.9717,-0.9606,-0.9581,-0.9707,-0.9707,-0.9707,-0.9707,-0.9707,-0.9707,-0.8826,-0.8926,-0.8946,-0.907,-0.9109,-0.9198,-0.9237,-0.9289,-0.9337,-0.9446,-0.9514,-0.9547,-0.9605,-0.9692,-0.9767,-0.9781,-0.9812,-0.983,-0.9843,-0.9738,-0.9725,-0.9713,-0.969,-0.9836,-0.9837,-0.9948,-0.9949,-0.995]}]]